Regional Weather Roundup
Issued by NWS Midland/Odessa, TX

Home | Current Version | Previous Version | Text Only | Print | Product List | Glossary On
Versions: 1 2 3 4 5 6 7 8 9 10 11 12 13 14 15 16 17 18 19 20 21 22 23 24 25 26 27 28 29 30 31 32 33 34 35 36 37 38 39 40 41 42 43 44 45 46 47 48 49 50
000
ASUS44 KMAF 300310
RWRMAF
MIDLAND AREA WEATHER ROUNDUP
NATIONAL WEATHER SERVICE MIDLAND TX
1000 PM CDT MON JUN 29 2015

...IN SOUTHWEST TEXAS AND SOUTHEAST NEW MEXICO...

CITY           SKY/WX    TMP DP  RH WIND       PRES   REMARKS
ALPINE         CLEAR     78  58  50 SE9       30.15R
ANDREWS        FAIR      76  58  52 N10       30.07R
ARTESIA        CLOUDY    75  61  60 SE8       30.09R
BIG SPRING     CLOUDY    87  58  38 SE8       30.02S
CARLSBAD       MOCLDY    75  63  66 E15       30.04R
DRYDEN           N/A     84  67  56 SE6       29.99R
FORT STOCKTON  MOCLDY    82  62  50 SE13      30.02R
GUAD PASS      LGT RAIN  66  52  60 N28G58    30.22R
HOBBS          CLOUDY    72  61  68 S8        30.11R
MARFA          PTCLDY   N/A N/A N/A E9        30.14R
MIDLAND AIRPK  CLOUDY    89  58  35 S12       30.02R
MIDLAND INTL   CLOUDY    87  58  37 S7        30.02R
ODESSA         CLOUDY    87  55  33 SE8       30.04R
PECOS          PTCLDY    86  53  32 NE8       29.98R
PRESIDIO       FAIR      90  55  30 MISG      29.95R
SEMINOLE       CLOUDY    73  60  64 S5        30.07S
SNYDER         CLOUDY    83  63  49 SE7       30.00F
WINK           CLOUDY    84  57  39 N31G38    30.03R
$$
...OTHER STATIONS IN TEXAS...

CITY           SKY/WX    TMP DP  RH WIND       PRES   REMARKS
ABILENE        MOCLDY    85  68  56 SE12      29.98S
AMARILLO       CLEAR     69  55  60 SE10      30.11S
AUSTIN         MOCLDY    81  73  76 S10       29.97R
BROWNSVILLE    PTCLDY    83  78  85 SE12      29.96R
CORPUS CHRISTI PTCLDY    80  76  87 SE7       29.95R
DALLAS FTW     MOCLDY    87  71  58 S10       29.94R
DEL RIO        CLEAR     85  68  56 E8        29.94R
EL PASO        PTCLDY    90  49  24 NE9       30.00R
HOUSTON INT    PTCLDY    83  75  77 S6        29.99R
LUBBOCK        CLOUDY    71  63  75 W7        30.04F
SAN ANGELO     MOCLDY    80  69  69 S7        29.98R
SAN ANTONIO    PTCLDY    83  72  69 SE14      29.99R
WACO           MOCLDY    83  72  69 S10       29.95R
WICHITA FALLS  NOT AVBL
$$
...OTHER LOCATIONS IN NEW MEXICO...

CITY           SKY/WX    TMP DP  RH WIND       PRES   REMARKS
ALAMAGORDO     MOCLDY    81  48  32 S5        30.04R
ALBUQUERQUE    MOCLDY    78  50  37 E20       30.15R
CANNON AFB     PTCLDY    72  58  61 E5        30.14R
CLOVIS         PTCLDY    70  61  73 E5          N/A
HOLLOMAN AFB   MOCLDY    84  50  30 W3        30.02R
ROSWELL        CLOUDY    76  62  62 NE3       30.10R
RUIDOSO        CLOUDY    59  55  88 S7        30.35R
SANTA FE       MOCLDY    71  48  43 SE16G28   30.26R
TRUTH OR CONSE PTCLDY    85  49  28 SE6       30.07R
TUCUMCARI      CLEAR     71  54  54 N8        30.12S
$$


USA.gov is the U.S. government's official web portal to all federal, state and local government web resources and services.